Time,TemperatureF,DewpointF,PressureIn,WindDirection,WindDirectionDegrees,WindSpeedMPH,WindSpeedGustMPH,Humidity,HourlyPrecipIn,Conditions,Clouds,dailyrainin,SolarRadiationWatts/m^2,SoftwareType,DateUTC
2013-02-26 00:00:00,21.3,17.8,30.17,WSW,248,0.1,1.1,86,0.00,SCT,OVC,0.00,0.0,WeatherDisplay:10.37,2013-02-26 05:00:00,
2013-02-26 00:05:00,21.4,18.1,30.17,WSW,248,0.0,1.1,87,0.00,SCT,OVC,0.00,0.0,WeatherDisplay:10.37,2013-02-26 05:05:00,
2013-02-26 00:10:00,21.5,18.2,30.17,WSW,248,0.0,1.1,87,0.00,SCT,OVC,0.00,0.0,WeatherDisplay:10.37,2013-02-26 05:10:00,
2013-02-26 00:15:00,21.5,18.2,30.17,WSW,248,1.3,2.3,87,0.00,SCT,OVC,0.00,0.0,WeatherDisplay:10.37,2013-02-26 05:15:00,
2013-02-26 00:20:00,21.5,18.2,30.18,WSW,248,0.0,2.3,87,0.00,SCT,OVC,0.00,0.0,WeatherDisplay:10.37,2013-02-26 05:20:00,
2013-02-26 00:25:00,21.6,18.3,30.18,WSW,248,0.0,1.1,87,0.00,SCT,OVC,0.00,0.0,WeatherDisplay:10.37,2013-02-26 05:25:00,
2013-02-26 00:30:00,21.7,18.4,30.18,WSW,248,0.0,1.1,87,0.00,SCT,OVC,0.00,0.0,WeatherDisplay:10.37,2013-02-26 05:30:00,
2013-02-26 00:35:00,21.7,18.4,30.18,WSW,248,0.1,1.1,87,0.00,SCT,OVC,0.00,0.0,WeatherDisplay:10.37,2013-02-26 05:35:00,
2013-02-26 00:40:00,21.7,18.4,30.18,WSW,248,0.4,1.1,87,0.00,SCT,OVC,0.00,0.0,WeatherDisplay:10.37,2013-02-26 05:40:00,
2013-02-26 00:45:00,21.7,18.4,30.19,WSW,248,0.0,0.0,87,0.00,SCT,OVC,0.00,0.0,WeatherDisplay:10.37,2013-02-26 05:45:00,
2013-02-26 00:50:00,21.6,18.3,30.20,WSW,248,0.0,0.0,87,0.00,SCT,OVC,0.00,0.0,WeatherDisplay:10.37,2013-02-26 05:50:00,
2013-02-26 00:55:00,21.6,18.3,30.20,WSW,248,0.0,0.0,87,0.00,SCT,OVC,0.00,0.0,WeatherDisplay:10.37,2013-02-26 05:55:00,
2013-02-26 01:00:00,21.6,18.3,30.20,WSW,248,0.0,0.0,87,0.00,SCT,OVC,0.00,0.0,WeatherDisplay:10.37,2013-02-26 06:00:00,
2013-02-26 01:05:00,21.6,18.3,30.20,WSW,248,0.0,0.0,87,0.00,SCT,OVC,0.00,0.0,WeatherDisplay:10.37,2013-02-26 06:05:00,
2013-02-26 01:10:00,21.6,18.3,30.19,WSW,248,0.0,0.0,87,0.00,SCT,OVC,0.00,0.0,WeatherDisplay:10.37,2013-02-26 06:10:00,
2013-02-26 01:15:00,21.6,18.3,30.19,WSW,248,0.0,1.1,87,0.00,SCT,OVC,0.00,0.0,WeatherDisplay:10.37,2013-02-26 06:15:00,
2013-02-26 01:20:00,21.6,18.3,30.20,WSW,248,0.0,0.0,87,0.00,SCT,OVC,0.00,0.0,WeatherDisplay:10.37,2013-02-26 06:20:00,
2013-02-26 01:25:00,21.6,18.3,30.19,WSW,248,0.0,0.0,87,0.00,CLR,OVC,0.00,0.0,WeatherDisplay:10.37,2013-02-26 06:25:00,
2013-02-26 01:30:00,21.5,18.0,30.20,WSW,248,0.0,0.0,86,0.00,CLR,OVC,0.00,0.0,WeatherDisplay:10.37,2013-02-26 06:30:00,
2013-02-26 01:35:00,21.4,17.9,30.20,WSW,248,0.0,0.0,86,0.00,CLR,OVC,0.00,0.0,WeatherDisplay:10.37,2013-02-26 06:35:00,
2013-02-26 01:40:00,21.2,17.7,30.20,WSW,248,0.8,2.3,86,0.00,CLR,OVC,0.00,0.0,WeatherDisplay:10.37,2013-02-26 06:40:00,
2013-02-26 01:45:00,21.1,17.6,30.19,WSW,248,0.0,0.0,86,0.00,CLR,OVC,0.00,0.0,WeatherDisplay:10.37,2013-02-26 06:45:00,
2013-02-26 01:50:00,21.0,17.5,30.19,WSW,248,0.0,0.0,86,0.00,CLR,OVC,0.00,0.0,WeatherDisplay:10.37,2013-02-26 06:50:00,
2013-02-26 01:55:00,20.9,17.4,30.19,WSW,248,0.0,1.1,86,0.00,CLR,OVC,0.00,0.0,WeatherDisplay:10.37,2013-02-26 06:55:00,
2013-02-26 02:00:00,20.9,17.4,30.19,WSW,248,0.0,0.0,86,0.00,CLR,OVC,0.00,0.0,WeatherDisplay:10.37,2013-02-26 07:00:00,
2013-02-26 02:05:00,20.8,17.5,30.18,WSW,248,0.0,0.0,87,0.00,CLR,OVC,0.00,0.0,WeatherDisplay:10.37,2013-02-26 07:05:00,
2013-02-26 02:10:00,20.9,17.6,30.18,WSW,248,0.0,1.1,87,0.00,CLR,OVC,0.00,0.0,WeatherDisplay:10.37,2013-02-26 07:10:00,
2013-02-26 02:15:00,21.0,17.7,30.18,WSW,248,0.0,0.0,87,0.00,CLR,OVC,0.00,0.0,WeatherDisplay:10.37,2013-02-26 07:15:00,
2013-02-26 02:20:00,21.1,17.8,30.18,WSW,248,0.0,0.0,87,0.00,CLR,OVC,0.00,0.0,WeatherDisplay:10.37,2013-02-26 07:20:00,
2013-02-26 02:25:00,21.2,17.9,30.18,WSW,248,0.3,1.1,87,0.00,CLR,OVC,0.00,0.0,WeatherDisplay:10.37,2013-02-26 07:25:00,
2013-02-26 02:30:00,21.3,18.0,30.18,WSW,248,0.3,1.1,87,0.00,CLR,OVC,0.00,0.0,WeatherDisplay:10.37,2013-02-26 07:30:00,
2013-02-26 02:35:00,21.5,18.2,30.18,WSW,248,0.6,2.0,87,0.00,CLR,OVC,0.00,0.0,WeatherDisplay:10.37,2013-02-26 07:35:00,
2013-02-26 02:40:00,21.8,18.8,30.18,WSW,248,0.0,1.1,88,0.00,CLR,OVC,0.00,0.0,WeatherDisplay:10.37,2013-02-26 07:40:00,
2013-02-26 02:45:00,21.9,18.6,30.17,WSW,248,0.0,0.0,87,0.00,CLR,OVC,0.00,0.0,WeatherDisplay:10.37,2013-02-26 07:45:00,
2013-02-26 02:50:00,21.8,18.5,30.17,WSW,248,0.0,0.0,87,0.00,CLR,OVC,0.00,0.0,WeatherDisplay:10.37,2013-02-26 07:50:00,
2013-02-26 02:55:00,21.7,18.4,30.17,WSW,248,0.5,1.1,87,0.00,CLR,OVC,0.00,0.0,WeatherDisplay:10.37,2013-02-26 07:55:00,
2013-02-26 03:00:00,21.8,18.5,30.16,WSW,248,0.6,2.3,87,0.00,CLR,OVC,0.00,0.0,WeatherDisplay:10.37,2013-02-26 08:00:00,
2013-02-26 03:05:00,21.9,18.6,30.17,WSW,248,0.4,2.3,87,0.00,CLR,OVC,0.00,0.0,WeatherDisplay:10.37,2013-02-26 08:05:00,
2013-02-26 03:10:00,22.0,18.7,30.16,WSW,248,0.0,2.3,87,0.00,CLR,OVC,0.00,0.0,WeatherDisplay:10.37,2013-02-26 08:10:00,
2013-02-26 03:15:00,22.1,18.8,30.16,WSW,248,1.0,2.3,87,0.00,CLR,OVC,0.00,0.0,WeatherDisplay:10.37,2013-02-26 08:15:00,
2013-02-26 03:20:00,22.2,19.2,30.16,WSW,248,0.2,2.3,88,0.00,CLR,OVC,0.00,0.0,WeatherDisplay:10.37,2013-02-26 08:20:00,
2013-02-26 03:25:00,22.3,19.3,30.16,WSW,248,0.6,2.3,88,0.00,CLR,OVC,0.00,0.0,WeatherDisplay:10.37,2013-02-26 08:25:00,
2013-02-26 03:30:00,22.4,19.4,30.16,WSW,248,0.0,1.1,88,0.00,CLR,OVC,0.00,0.0,WeatherDisplay:10.37,2013-02-26 08:30:00,
2013-02-26 03:35:00,22.5,19.5,30.16,WSW,248,0.0,0.0,88,0.00,CLR,OVC,0.00,0.0,WeatherDisplay:10.37,2013-02-26 08:35:00,
2013-02-26 03:40:00,22.6,19.6,30.16,WSW,248,0.0,0.0,88,0.00,CLR,OVC,0.00,0.0,WeatherDisplay:10.37,2013-02-26 08:40:00,
2013-02-26 03:45:00,22.6,19.6,30.16,WSW,248,0.6,2.3,88,0.00,CLR,OVC,0.00,0.0,WeatherDisplay:10.37,2013-02-26 08:45:00,
2013-02-26 03:51:00,22.4,19.1,30.16,WSW,248,0.1,1.1,87,0.00,CLR,OVC,0.00,0.0,WeatherDisplay:10.37,2013-02-26 08:51:00,
2013-02-26 03:56:00,22.2,18.9,30.16,WSW,248,0.0,0.0,87,0.00,CLR,OVC,0.00,0.0,WeatherDisplay:10.37,2013-02-26 08:56:00,
2013-02-26 04:01:00,22.1,18.8,30.15,WSW,248,0.2,1.1,87,0.00,CLR,OVC,0.00,0.0,WeatherDisplay:10.37,2013-02-26 09:01:00,
2013-02-26 04:06:00,22.1,18.8,30.15,WSW,248,0.1,2.3,87,0.00,CLR,OVC,0.00,0.0,WeatherDisplay:10.37,2013-02-26 09:06:00,
2013-02-26 04:11:00,22.0,18.7,30.15,WSW,248,0.1,2.3,87,0.00,CLR,OVC,0.00,0.0,WeatherDisplay:10.37,2013-02-26 09:11:00,
2013-02-26 04:16:00,22.0,18.7,30.15,WSW,248,0.0,2.3,87,0.00,CLR,OVC,0.00,0.0,WeatherDisplay:10.37,2013-02-26 09:16:00,
2013-02-26 04:21:00,22.1,18.8,30.16,WSW,248,0.7,2.3,87,0.00,CLR,OVC,0.00,0.0,WeatherDisplay:10.37,2013-02-26 09:21:00,
2013-02-26 04:26:00,22.3,19.3,30.15,WSW,248,0.0,3.5,88,0.00,CLR,OVC,0.00,0.0,WeatherDisplay:10.37,2013-02-26 09:26:00,
2013-02-26 04:31:00,22.5,19.2,30.15,WSW,248,1.3,2.3,87,0.00,CLR,OVC,0.00,0.0,WeatherDisplay:10.37,2013-02-26 09:31:00,
2013-02-26 04:36:00,22.5,19.2,30.15,WSW,248,0.6,2.3,87,0.00,CLR,OVC,0.00,0.0,WeatherDisplay:10.37,2013-02-26 09:36:00,
2013-02-26 04:41:00,22.4,19.1,30.15,WSW,248,0.1,1.1,87,0.00,CLR,OVC,0.00,0.0,WeatherDisplay:10.37,2013-02-26 09:41:00,
2013-02-26 04:46:00,22.3,19.0,30.15,WSW,248,0.9,2.3,87,0.00,CLR,OVC,0.00,0.0,WeatherDisplay:10.37,2013-02-26 09:46:00,
2013-02-26 04:51:00,22.1,18.8,30.16,WSW,248,0.0,1.1,87,0.00,CLR,OVC,0.00,0.0,WeatherDisplay:10.37,2013-02-26 09:51:00,
2013-02-26 04:56:00,21.9,18.4,30.16,WSW,248,0.0,0.0,86,0.00,CLR,OVC,0.00,0.0,WeatherDisplay:10.37,2013-02-26 09:56:00,
2013-02-26 05:01:00,21.6,18.1,30.16,WSW,248,0.7,1.1,86,0.00,CLR,OVC,0.00,0.0,WeatherDisplay:10.37,2013-02-26 10:01:00,
2013-02-26 05:06:00,21.3,17.8,30.16,WSW,248,1.6,2.3,86,0.00,CLR,OVC,0.00,0.0,WeatherDisplay:10.37,2013-02-26 10:06:00,
2013-02-26 05:11:00,21.4,17.9,30.16,WSW,248,0.3,2.3,86,0.00,CLR,OVC,0.00,0.0,WeatherDisplay:10.37,2013-02-26 10:11:00,
2013-02-26 05:16:00,21.4,17.9,30.16,WSW,248,1.0,2.3,86,0.00,CLR,OVC,0.00,0.0,WeatherDisplay:10.37,2013-02-26 10:16:00,
2013-02-26 05:21:00,21.4,17.9,30.16,WSW,248,0.5,2.3,86,0.00,CLR,OVC,0.00,0.0,WeatherDisplay:10.37,2013-02-26 10:21:00,
2013-02-26 05:26:00,21.4,17.9,30.16,WSW,248,1.5,3.5,86,0.00,CLR,OVC,0.00,0.0,WeatherDisplay:10.37,2013-02-26 10:26:00,
2013-02-26 05:31:00,21.4,17.9,30.15,WSW,248,1.4,2.3,86,0.00,CLR,OVC,0.00,0.0,WeatherDisplay:10.37,2013-02-26 10:31:00,
2013-02-26 05:36:00,21.5,18.2,30.15,WSW,248,1.3,3.5,87,0.00,CLR,OVC,0.00,0.0,WeatherDisplay:10.37,2013-02-26 10:36:00,
2013-02-26 05:41:00,21.6,18.3,30.15,WSW,248,0.5,2.3,87,0.00,CLR,OVC,0.00,0.0,WeatherDisplay:10.37,2013-02-26 10:41:00,
2013-02-26 05:46:00,21.6,18.1,30.15,WSW,248,0.0,1.1,86,0.00,CLR,OVC,0.00,0.0,WeatherDisplay:10.37,2013-02-26 10:46:00,
2013-02-26 05:51:00,21.5,18.0,30.14,WSW,248,0.0,1.1,86,0.00,CLR,OVC,0.00,0.0,WeatherDisplay:10.37,2013-02-26 10:51:00,
2013-02-26 05:56:00,21.4,17.9,30.14,WSW,248,0.3,2.3,86,0.00,CLR,OVC,0.00,0.0,WeatherDisplay:10.37,2013-02-26 10:56:00,
2013-02-26 06:01:00,21.4,17.9,30.13,WSW,248,0.4,2.3,86,0.00,CLR,OVC,0.00,0.0,WeatherDisplay:10.37,2013-02-26 11:01:00,
2013-02-26 06:06:00,21.4,17.9,30.13,WSW,248,1.2,2.3,86,0.00,CLR,OVC,0.00,0.0,WeatherDisplay:10.37,2013-02-26 11:06:00,
2013-02-26 06:11:00,21.4,17.9,30.14,WSW,248,1.2,2.3,86,0.00,CLR,OVC,0.00,0.0,WeatherDisplay:10.37,2013-02-26 11:11:00,
2013-02-26 06:16:00,21.5,18.0,30.13,WSW,248,1.5,3.5,86,0.00,CLR,OVC,0.00,0.0,WeatherDisplay:10.37,2013-02-26 11:16:00,
2013-02-26 06:21:00,21.5,18.0,30.13,WSW,248,1.2,2.3,86,0.00,FEW,OVC,0.00,0.0,WeatherDisplay:10.37,2013-02-26 11:21:00,
2013-02-26 06:26:00,21.7,18.2,30.13,WSW,248,1.6,3.5,86,0.00,FEW,OVC,0.00,0.0,WeatherDisplay:10.37,2013-02-26 11:26:00,
2013-02-26 06:31:00,21.9,18.4,30.12,WSW,248,1.4,3.5,86,0.00,FEW,OVC,0.00,0.0,WeatherDisplay:10.37,2013-02-26 11:31:00,
2013-02-26 06:36:00,22.0,18.5,30.12,WSW,248,0.8,3.5,86,0.00,FEW,OVC,0.00,0.0,WeatherDisplay:10.37,2013-02-26 11:36:00,
2013-02-26 06:41:00,22.2,18.7,30.12,WSW,248,0.0,1.1,86,0.00,FEW,OVC,0.00,0.0,WeatherDisplay:10.37,2013-02-26 11:41:00,
2013-02-26 06:46:00,22.2,18.7,30.13,WSW,248,0.2,2.3,86,0.00,FEW,OVC,0.00,0.0,WeatherDisplay:10.37,2013-02-26 11:46:00,
2013-02-26 06:51:00,22.3,18.7,30.12,WSW,248,0.0,1.1,86,0.00,FEW,OVC,0.00,0.0,WeatherDisplay:10.37,2013-02-26 11:51:00,
2013-02-26 06:56:00,22.4,18.8,30.12,WSW,248,0.4,2.3,86,0.00,FEW,OVC,0.00,5.0,WeatherDisplay:10.37,2013-02-26 11:56:00,
2013-02-26 07:01:00,22.5,18.9,30.13,WSW,248,0.3,2.3,86,0.00,FEW,OVC,0.00,7.0,WeatherDisplay:10.37,2013-02-26 12:01:00,
2013-02-26 07:06:00,22.5,18.7,30.12,WSW,248,0.8,2.3,85,0.00,SCT,OVC,0.00,11.0,WeatherDisplay:10.37,2013-02-26 12:06:00,
2013-02-26 07:11:00,22.5,18.7,30.11,WSW,248,0.8,2.3,85,0.00,SCT,OVC,0.00,16.0,WeatherDisplay:10.37,2013-02-26 12:11:00,
2013-02-26 07:16:00,22.5,18.7,30.12,WSW,248,0.9,2.3,85,0.00,SCT,OVC,0.00,19.0,WeatherDisplay:10.37,2013-02-26 12:16:00,
2013-02-26 07:21:00,22.6,18.8,30.12,WSW,248,0.7,3.5,85,0.00,SCT,OVC,0.00,28.0,WeatherDisplay:10.37,2013-02-26 12:21:00,
2013-02-26 07:26:00,22.7,18.9,30.12,WSW,247,0.5,2.3,85,0.00,SCT,OVC,0.00,37.0,WeatherDisplay:10.37,2013-02-26 12:26:00,
2013-02-26 07:31:00,23.0,19.2,30.12,WSW,247,1.1,3.5,85,0.00,SCT,OVC,0.00,49.0,WeatherDisplay:10.37,2013-02-26 12:31:00,
2013-02-26 07:36:00,23.3,19.5,30.12,WSW,247,0.8,3.0,85,0.00,SCT,OVC,0.00,56.0,WeatherDisplay:10.37,2013-02-26 12:36:00,
2013-02-26 07:41:00,23.6,19.8,30.13,WSW,247,0.6,2.3,85,0.00,SCT,OVC,0.00,63.0,WeatherDisplay:10.37,2013-02-26 12:41:00,
2013-02-26 07:46:00,24.0,20.1,30.13,WSW,247,0.0,2.3,85,0.00,SCT,OVC,0.00,67.0,WeatherDisplay:10.37,2013-02-26 12:46:00,
2013-02-26 07:51:00,24.4,20.5,30.13,WSW,247,0.4,2.3,85,0.00,SCT,OVC,0.00,69.0,WeatherDisplay:10.37,2013-02-26 12:51:00,
2013-02-26 07:56:00,24.6,20.7,30.13,WSW,247,0.1,2.3,85,0.00,SCT,OVC,0.00,77.0,WeatherDisplay:10.37,2013-02-26 12:56:00,
2013-02-26 08:01:00,25.0,21.1,30.13,WSW,247,0.7,2.3,85,0.00,SCT,OVC,0.00,88.0,WeatherDisplay:10.37,2013-02-26 13:01:00,
2013-02-26 08:06:00,25.5,21.6,30.14,WSW,238,1.5,3.5,85,0.00,SCT,OVC,0.00,95.0,WeatherDisplay:10.37,2013-02-26 13:06:00,
2013-02-26 08:11:00,26.1,21.9,30.13,SSW,212,2.4,5.0,84,0.00,SCT,OVC,0.00,111.0,WeatherDisplay:10.37,2013-02-26 13:11:00,
2013-02-26 08:16:00,26.8,22.6,30.13,SSE,154,1.8,4.6,84,0.00,SCT,OVC,0.00,118.0,WeatherDisplay:10.37,2013-02-26 13:16:00,
2013-02-26 08:21:00,27.5,23.0,30.13,SSE,150,2.4,5.0,83,0.00,BKN,OVC,0.00,121.0,WeatherDisplay:10.37,2013-02-26 13:21:00,
2013-02-26 08:26:00,28.2,23.1,30.12,SE,132,2.7,5.8,81,0.00,BKN,OVC,0.00,123.0,WeatherDisplay:10.37,2013-02-26 13:26:00,
2013-02-26 08:31:00,28.8,23.4,30.12,ESE,108,5.0,10.4,80,0.00,BKN,OVC,0.00,139.0,WeatherDisplay:10.37,2013-02-26 13:31:00,
2013-02-26 08:36:00,29.4,23.7,30.13,ESE,107,8.4,11.5,79,0.00,BKN,OVC,0.00,151.0,WeatherDisplay:10.37,2013-02-26 13:36:00,
2013-02-26 08:41:00,30.2,23.9,30.12,SE,130,4.5,8.1,77,0.00,BKN,OVC,0.00,181.0,WeatherDisplay:10.37,2013-02-26 13:41:00,
2013-02-26 08:46:00,30.8,24.1,30.13,SE,127,3.7,9.0,76,0.00,BKN,OVC,0.00,220.0,WeatherDisplay:10.37,2013-02-26 13:46:00,
2013-02-26 08:51:00,31.2,24.2,30.13,ESE,114,5.8,11.0,75,0.00,BKN,OVC,0.00,232.0,WeatherDisplay:10.37,2013-02-26 13:51:00,
2013-02-26 08:56:00,31.8,24.5,30.13,ESE,114,6.6,11.5,74,0.00,BKN,OVC,0.00,250.0,WeatherDisplay:10.37,2013-02-26 13:56:00,
2013-02-26 09:01:00,32.3,24.6,30.13,SE,132,3.1,6.9,73,0.00,BKN,OVC,0.00,220.0,WeatherDisplay:10.37,2013-02-26 14:01:00,
2013-02-26 09:06:00,32.7,24.3,30.13,ESE,112,6.6,11.0,71,0.00,BKN,OVC,0.00,230.0,WeatherDisplay:10.37,2013-02-26 14:06:00,
2013-02-26 09:11:00,33.0,24.3,30.13,SE,124,2.9,10.4,70,0.00,BKN,OVC,0.00,244.0,WeatherDisplay:10.37,2013-02-26 14:11:00,
2013-02-26 09:16:00,33.3,24.2,30.13,ESE,105,6.3,11.5,69,0.00,BKN,OVC,0.00,230.0,WeatherDisplay:10.37,2013-02-26 14:16:00,
2013-02-26 09:21:00,33.5,24.4,30.12,ESE,113,6.0,11.0,69,0.00,BKN,OVC,0.00,285.0,WeatherDisplay:10.37,2013-02-26 14:21:00,
2013-02-26 09:27:00,33.8,24.4,30.12,ESE,117,4.5,11.5,68,0.00,BKN,OVC,0.00,322.0,WeatherDisplay:10.37,2013-02-26 14:27:00,
2013-02-26 09:31:00,34.1,24.3,30.12,ESE,105,5.0,11.5,67,0.00,BKN,OVC,0.00,343.0,WeatherDisplay:10.37,2013-02-26 14:31:00,
2013-02-26 09:37:00,34.5,24.7,30.11,SE,124,6.2,11.5,67,0.00,BKN,OVC,0.00,332.0,WeatherDisplay:10.37,2013-02-26 14:37:00,
2013-02-26 09:42:00,35.0,24.8,30.11,ESE,113,3.0,7.0,66,0.00,BKN,OVC,0.00,336.0,WeatherDisplay:10.37,2013-02-26 14:42:00,
2013-02-26 09:47:00,35.6,24.6,30.11,ESE,118,5.9,13.8,64,0.00,BKN,OVC,0.00,366.0,WeatherDisplay:10.37,2013-02-26 14:47:00,
2013-02-26 09:52:00,35.9,24.9,30.10,ESE,102,4.8,11.5,64,0.00,BKN,OVC,0.00,360.0,WeatherDisplay:10.37,2013-02-26 14:52:00,
2013-02-26 09:57:00,36.3,24.9,30.10,East,99,7.8,13.0,63,0.00,BKN,OVC,0.00,346.0,WeatherDisplay:10.37,2013-02-26 14:57:00,
2013-02-26 10:02:00,36.6,25.2,30.09,ESE,117,8.1,12.7,63,0.00,BKN,OVC,0.00,352.0,WeatherDisplay:10.37,2013-02-26 15:02:00,
2013-02-26 10:07:00,36.9,25.1,30.09,ESE,111,11.1,15.0,62,0.00,BKN,OVC,0.00,353.0,WeatherDisplay:10.37,2013-02-26 15:07:00,
2013-02-26 10:12:00,37.1,25.3,30.08,East,97,5.8,10.4,62,0.00,BKN,OVC,0.00,401.0,WeatherDisplay:10.37,2013-02-26 15:12:00,
2013-02-26 10:17:00,37.5,25.7,30.08,East,97,9.3,15.0,62,0.00,BKN,OVC,0.00,401.0,WeatherDisplay:10.37,2013-02-26 15:17:00,
2013-02-26 10:22:00,37.8,25.5,30.07,East,92,5.8,11.0,61,0.00,BKN,OVC,0.00,432.0,WeatherDisplay:10.37,2013-02-26 15:22:00,
2013-02-26 10:27:00,38.2,25.5,30.08,SE,132,9.1,15.0,60,0.00,BKN,OVC,0.00,452.0,WeatherDisplay:10.37,2013-02-26 15:27:00,
2013-02-26 10:32:00,38.5,25.8,30.08,ESE,120,6.2,13.0,60,0.00,BKN,OVC,0.00,506.0,WeatherDisplay:10.37,2013-02-26 15:32:00,
2013-02-26 10:37:00,39.0,25.9,30.08,ESE,122,7.9,16.0,59,0.00,BKN,OVC,0.00,485.0,WeatherDisplay:10.37,2013-02-26 15:37:00,
2013-02-26 10:42:00,39.3,25.7,30.07,ESE,113,8.6,14.0,58,0.00,BKN,OVC,0.00,475.0,WeatherDisplay:10.37,2013-02-26 15:42:00,
2013-02-26 10:47:00,39.5,25.5,30.06,East,90,12.6,21.0,57,0.00,BKN,OVC,0.00,508.0,WeatherDisplay:10.37,2013-02-26 15:47:00,
2013-02-26 10:52:00,39.3,25.3,30.06,ESE,103,12.1,19.6,57,0.00,BKN,OVC,0.00,540.0,WeatherDisplay:10.37,2013-02-26 15:52:00,
2013-02-26 10:57:00,39.4,25.4,30.06,ESE,104,11.6,15.0,57,0.00,BKN,OVC,0.00,529.0,WeatherDisplay:10.37,2013-02-26 15:57:00,
2013-02-26 11:02:00,39.7,25.7,30.06,SE,141,8.9,14.0,57,0.00,BKN,OVC,0.00,524.0,WeatherDisplay:10.37,2013-02-26 16:02:00,
2013-02-26 11:07:00,39.9,26.3,30.05,ESE,103,9.9,15.0,58,0.00,BKN,OVC,0.00,561.0,WeatherDisplay:10.37,2013-02-26 16:07:00,
2013-02-26 11:12:00,40.2,26.2,30.05,SSE,155,7.1,15.0,57,0.00,BKN,OVC,0.00,573.0,WeatherDisplay:10.37,2013-02-26 16:12:00,
2013-02-26 11:17:00,40.7,26.2,30.05,ENE,76,12.2,16.1,56,0.00,BKN,OVC,0.00,589.0,WeatherDisplay:10.37,2013-02-26 16:17:00,
2013-02-26 11:22:00,40.9,26.4,30.05,East,88,10.3,15.0,56,0.00,BKN,OVC,0.00,592.0,WeatherDisplay:10.37,2013-02-26 16:22:00,
2013-02-26 11:27:00,41.3,26.8,30.05,SSE,155,5.7,16.1,56,0.00,BKN,OVC,0.00,577.0,WeatherDisplay:10.37,2013-02-26 16:27:00,
2013-02-26 11:32:00,41.7,26.3,30.05,SE,130,6.3,18.4,54,0.00,BKN,OVC,0.00,605.0,WeatherDisplay:10.37,2013-02-26 16:32:00,
2013-02-26 11:37:00,41.8,26.4,30.03,East,80,8.1,12.7,54,0.00,BKN,OVC,0.00,566.0,WeatherDisplay:10.37,2013-02-26 16:37:00,
2013-02-26 11:42:00,41.8,26.4,30.03,East,99,6.0,10.4,54,0.00,BKN,OVC,0.00,557.0,WeatherDisplay:10.37,2013-02-26 16:42:00,
2013-02-26 11:47:00,42.0,26.1,30.03,ESE,107,9.4,18.0,53,0.00,BKN,OVC,0.00,501.0,WeatherDisplay:10.37,2013-02-26 16:47:00,
2013-02-26 11:52:00,41.8,25.9,30.03,ESE,111,5.2,11.5,53,0.00,BKN,OVC,0.00,475.0,WeatherDisplay:10.37,2013-02-26 16:52:00,
2013-02-26 11:57:00,41.9,26.0,30.02,East,93,13.2,17.3,53,0.00,BKN,OVC,0.00,497.0,WeatherDisplay:10.37,2013-02-26 16:57:00,
2013-02-26 12:02:00,41.8,25.4,30.02,East,100,9.6,20.7,52,0.00,BKN,OVC,0.00,475.0,WeatherDisplay:10.37,2013-02-26 17:02:00,
2013-02-26 12:07:00,42.0,25.6,30.01,ESE,111,7.6,16.1,52,0.00,BKN,OVC,0.00,482.0,WeatherDisplay:10.37,2013-02-26 17:07:00,
2013-02-26 12:12:00,42.2,25.8,30.01,East,100,8.9,19.6,52,0.00,BKN,OVC,0.00,445.0,WeatherDisplay:10.37,2013-02-26 17:12:00,
2013-02-26 12:17:00,42.3,25.4,30.01,SE,146,9.1,19.0,51,0.00,BKN,OVC,0.00,381.0,WeatherDisplay:10.37,2013-02-26 17:17:00,
2013-02-26 12:22:00,42.4,26.0,30.01,ESE,116,7.9,10.0,52,0.00,OVC,,0.00,403.0,WeatherDisplay:10.37,2013-02-26 17:22:00,
2013-02-26 12:27:00,42.4,25.5,30.00,ESE,115,7.5,13.8,51,0.00,OVC,,0.00,431.0,WeatherDisplay:10.37,2013-02-26 17:27:00,
2013-02-26 12:32:00,42.3,25.4,30.00,East,92,10.7,18.4,51,0.00,OVC,,0.00,403.0,WeatherDisplay:10.37,2013-02-26 17:32:00,
2013-02-26 12:37:00,42.3,25.9,30.00,East,94,10.5,15.0,52,0.00,OVC,,0.00,443.0,WeatherDisplay:10.37,2013-02-26 17:37:00,
2013-02-26 12:42:00,42.4,25.5,30.00,East,101,10.4,14.0,51,0.00,OVC,,0.00,452.0,WeatherDisplay:10.37,2013-02-26 17:42:00,
2013-02-26 12:47:00,42.5,25.6,30.00,ESE,105,10.0,16.1,51,0.00,OVC,,0.00,425.0,WeatherDisplay:10.37,2013-02-26 17:47:00,
2013-02-26 12:52:00,42.5,25.6,30.00,ENE,63,10.6,14.0,51,0.00,OVC,,0.00,390.0,WeatherDisplay:10.37,2013-02-26 17:52:00,
2013-02-26 12:57:00,42.4,25.5,29.99,East,89,7.9,13.0,51,0.00,OVC,,0.00,396.0,WeatherDisplay:10.37,2013-02-26 17:57:00,
2013-02-26 13:02:00,42.4,25.5,29.98,East,81,9.4,15.0,51,0.00,OVC,,0.00,404.0,WeatherDisplay:10.37,2013-02-26 18:02:00,
2013-02-26 13:07:00,42.5,25.6,29.97,ESE,115,5.8,13.8,51,0.00,OVC,,0.00,432.0,WeatherDisplay:10.37,2013-02-26 18:07:00,
2013-02-26 13:12:00,42.7,26.3,29.97,SE,127,5.3,11.5,52,0.00,OVC,,0.00,385.0,WeatherDisplay:10.37,2013-02-26 18:12:00,
2013-02-26 13:17:00,42.8,25.9,29.97,East,92,10.4,16.1,51,0.00,OVC,,0.00,352.0,WeatherDisplay:10.37,2013-02-26 18:17:00,
2013-02-26 13:22:00,42.7,25.8,29.97,ESE,106,11.0,15.0,51,0.00,OVC,,0.00,341.0,WeatherDisplay:10.37,2013-02-26 18:22:00,
2013-02-26 13:27:00,42.5,25.6,29.96,ESE,102,12.6,21.0,51,0.00,OVC,,0.00,320.0,WeatherDisplay:10.37,2013-02-26 18:27:00,
2013-02-26 13:32:00,42.4,26.0,29.96,ESE,107,10.3,15.0,52,0.00,OVC,,0.00,290.0,WeatherDisplay:10.37,2013-02-26 18:32:00,
2013-02-26 13:37:00,42.3,26.4,29.95,East,89,4.2,12.7,53,0.00,OVC,,0.00,285.0,WeatherDisplay:10.37,2013-02-26 18:37:00,
2013-02-26 13:42:00,42.2,25.8,29.95,ESE,108,11.7,19.6,52,0.00,OVC,,0.00,271.0,WeatherDisplay:10.37,2013-02-26 18:42:00,
2013-02-26 13:47:00,42.2,25.8,29.95,East,99,10.5,16.0,52,0.00,OVC,,0.00,260.0,WeatherDisplay:10.37,2013-02-26 18:47:00,
2013-02-26 13:52:00,42.1,25.7,29.95,ESE,112,9.2,15.0,52,0.00,OVC,,0.00,244.0,WeatherDisplay:10.37,2013-02-26 18:52:00,
2013-02-26 13:57:00,42.0,25.6,29.95,East,84,10.3,16.1,52,0.00,OVC,,0.00,227.0,WeatherDisplay:10.37,2013-02-26 18:57:00,
2013-02-26 14:03:00,41.9,26.0,29.94,ESE,103,9.3,16.0,53,0.00,OVC,,0.00,218.0,WeatherDisplay:10.37,2013-02-26 19:03:00,
2013-02-26 14:08:00,41.8,25.9,29.94,ESE,103,8.5,17.3,53,0.00,OVC,,0.00,221.0,WeatherDisplay:10.37,2013-02-26 19:08:00,
2013-02-26 14:13:00,41.8,25.9,29.94,East,101,10.3,17.3,53,0.00,OVC,,0.00,225.0,WeatherDisplay:10.37,2013-02-26 19:13:00,
2013-02-26 14:18:00,41.8,26.4,29.94,East,82,6.2,10.4,54,0.00,OVC,,0.00,227.0,WeatherDisplay:10.37,2013-02-26 19:18:00,
2013-02-26 14:23:00,41.9,26.0,29.94,East,101,6.7,13.8,53,0.00,OVC,,0.00,237.0,WeatherDisplay:10.37,2013-02-26 19:23:00,
2013-02-26 14:28:00,41.9,26.4,29.94,ESE,106,3.3,12.0,54,0.00,OVC,,0.00,237.0,WeatherDisplay:10.37,2013-02-26 19:28:00,
2013-02-26 14:33:00,42.1,26.6,29.93,ESE,122,6.6,11.5,54,0.00,OVC,,0.00,232.0,WeatherDisplay:10.37,2013-02-26 19:33:00,
2013-02-26 14:38:00,42.2,26.7,29.94,East,101,10.8,15.0,54,0.00,OVC,,0.00,229.0,WeatherDisplay:10.37,2013-02-26 19:38:00,
2013-02-26 14:43:00,42.2,26.7,29.94,East,96,7.8,10.4,54,0.00,OVC,,0.00,218.0,WeatherDisplay:10.37,2013-02-26 19:43:00,
2013-02-26 14:48:00,42.2,26.7,29.93,ESE,104,7.7,11.5,54,0.00,OVC,,0.00,207.0,WeatherDisplay:10.37,2013-02-26 19:48:00,
2013-02-26 14:53:00,42.2,26.3,29.93,ESE,119,9.1,14.0,53,0.00,OVC,,0.00,192.0,WeatherDisplay:10.37,2013-02-26 19:53:00,
2013-02-26 14:58:00,42.2,26.7,29.93,East,92,5.5,11.5,54,0.00,OVC,,0.00,179.0,WeatherDisplay:10.37,2013-02-26 19:58:00,
2013-02-26 15:03:00,42.2,26.7,29.93,East,97,9.3,14.0,54,0.00,OVC,,0.00,165.0,WeatherDisplay:10.37,2013-02-26 20:03:00,
2013-02-26 15:08:00,42.3,26.8,29.92,East,97,10.2,14.0,54,0.00,OVC,,0.00,162.0,WeatherDisplay:10.37,2013-02-26 20:08:00,
2013-02-26 15:13:00,42.3,26.4,29.92,ESE,102,9.7,16.1,53,0.00,OVC,,0.00,151.0,WeatherDisplay:10.37,2013-02-26 20:13:00,
2013-02-26 15:18:00,42.3,26.8,29.91,East,97,5.2,11.5,54,0.00,OVC,,0.00,132.0,WeatherDisplay:10.37,2013-02-26 20:18:00,
2013-02-26 15:23:00,42.3,26.4,29.91,East,101,10.8,14.0,53,0.00,OVC,,0.00,109.0,WeatherDisplay:10.37,2013-02-26 20:23:00,
2013-02-26 15:28:00,42.2,26.3,29.91,East,97,5.8,11.5,53,0.00,OVC,,0.00,83.0,WeatherDisplay:10.37,2013-02-26 20:28:00,
2013-02-26 15:33:00,42.1,26.2,29.90,East,101,9.1,17.3,53,0.00,OVC,,0.00,53.0,WeatherDisplay:10.37,2013-02-26 20:33:00,
2013-02-26 15:38:00,42.0,26.1,29.90,ESE,116,9.3,16.1,53,0.00,OVC,,0.00,46.0,WeatherDisplay:10.37,2013-02-26 20:38:00,
2013-02-26 15:43:00,41.9,26.0,29.90,East,94,6.3,10.4,53,0.00,OVC,,0.00,49.0,WeatherDisplay:10.37,2013-02-26 20:43:00,
2013-02-26 15:48:00,41.8,26.4,29.90,ESE,112,6.2,10.4,54,0.00,OVC,,0.00,54.0,WeatherDisplay:10.37,2013-02-26 20:48:00,
2013-02-26 15:53:00,41.8,26.4,29.89,SE,126,7.2,11.0,54,0.00,OVC,,0.00,56.0,WeatherDisplay:10.37,2013-02-26 20:53:00,
2013-02-26 15:58:00,41.8,25.9,29.89,ESE,106,6.6,17.3,53,0.00,OVC,,0.00,47.0,WeatherDisplay:10.37,2013-02-26 20:58:00,
2013-02-26 16:03:00,41.7,25.8,29.89,East,101,8.7,14.0,53,0.00,OVC,,0.00,42.0,WeatherDisplay:10.37,2013-02-26 21:03:00,
2013-02-26 16:08:00,41.7,25.4,29.88,East,92,8.3,15.0,52,0.00,OVC,,0.00,40.0,WeatherDisplay:10.37,2013-02-26 21:08:00,
2013-02-26 16:13:00,41.6,25.7,29.88,ESE,110,4.4,12.7,53,0.00,OVC,,0.00,33.0,WeatherDisplay:10.37,2013-02-26 21:13:00,
2013-02-26 16:18:00,41.6,25.7,29.88,East,81,10.2,16.1,53,0.00,OVC,,0.00,26.0,WeatherDisplay:10.37,2013-02-26 21:18:00,
2013-02-26 16:23:00,41.5,26.1,29.88,SE,125,5.8,12.7,54,0.00,OVC,,0.00,28.0,WeatherDisplay:10.37,2013-02-26 21:23:00,
2013-02-26 16:28:00,41.3,25.4,29.87,ESE,106,13.4,22.0,53,0.00,OVC,,0.00,25.0,WeatherDisplay:10.37,2013-02-26 21:28:00,
2013-02-26 16:33:00,41.3,25.4,29.87,ESE,103,12.3,18.4,53,0.00,OVC,,0.00,19.0,WeatherDisplay:10.37,2013-02-26 21:33:00,
2013-02-26 16:38:00,41.2,25.3,29.87,East,90,11.6,22.0,53,0.00,OVC,,0.00,18.0,WeatherDisplay:10.37,2013-02-26 21:38:00,
2013-02-26 16:43:00,41.1,25.7,29.88,ESE,118,9.5,18.0,54,0.00,OVC,,0.00,14.0,WeatherDisplay:10.37,2013-02-26 21:43:00,
2013-02-26 16:48:00,41.0,25.6,29.88,SE,126,8.2,13.0,54,0.00,OVC,,0.00,12.0,WeatherDisplay:10.37,2013-02-26 21:48:00,
2013-02-26 16:53:00,41.0,25.6,29.87,ESE,106,5.6,15.0,54,0.00,OVC,,0.00,11.0,WeatherDisplay:10.37,2013-02-26 21:53:00,
2013-02-26 16:58:00,40.9,25.5,29.88,ESE,120,4.8,10.4,54,0.00,OVC,,0.00,7.0,WeatherDisplay:10.37,2013-02-26 21:58:00,
2013-02-26 17:03:00,40.8,25.9,29.87,SE,130,6.0,9.2,55,0.00,OVC,,0.00,7.0,WeatherDisplay:10.37,2013-02-26 22:03:00,
2013-02-26 17:08:00,40.7,25.8,29.88,ESE,112,11.0,16.0,55,0.00,OVC,,0.00,5.0,WeatherDisplay:10.37,2013-02-26 22:08:00,
2013-02-26 17:13:00,40.7,25.8,29.88,ESE,110,8.0,17.3,55,0.00,OVC,,0.00,5.0,WeatherDisplay:10.37,2013-02-26 22:13:00,
2013-02-26 17:18:00,40.6,25.7,29.88,ESE,119,8.6,17.3,55,0.00,OVC,,0.00,5.0,WeatherDisplay:10.37,2013-02-26 22:18:00,
2013-02-26 17:23:00,40.6,26.1,29.88,ESE,113,7.3,13.0,56,0.00,OVC,,0.00,0.0,WeatherDisplay:10.37,2013-02-26 22:23:00,
2013-02-26 17:28:00,40.5,26.4,29.88,SE,140,4.4,11.5,57,0.00,OVC,,0.00,0.0,WeatherDisplay:10.37,2013-02-26 22:28:00,
2013-02-26 17:33:00,40.3,26.7,29.88,ESE,108,4.2,10.4,58,0.00,OVC,,0.00,0.0,WeatherDisplay:10.37,2013-02-26 22:33:00,
2013-02-26 17:38:00,40.0,27.2,29.87,East,98,3.7,9.2,60,0.00,OVC,,0.00,0.0,WeatherDisplay:10.37,2013-02-26 22:38:00,
2013-02-26 17:44:00,39.6,28.0,29.87,ESE,119,8.8,14.0,63,0.01,RA,OVC,0.01,0.0,WeatherDisplay:10.37,2013-02-26 22:44:00,
2013-02-26 17:49:00,39.2,28.8,29.87,ESE,120,2.4,9.2,66,0.01,RA,OVC,0.01,0.0,WeatherDisplay:10.37,2013-02-26 22:49:00,
2013-02-26 17:54:00,38.7,29.0,29.87,ESE,109,7.3,13.8,68,0.01,OVC,,0.02,0.0,WeatherDisplay:10.37,2013-02-26 22:54:00,
2013-02-26 17:59:00,38.2,29.6,29.86,East,87,7.4,10.4,71,0.02,RA,OVC,0.02,0.0,WeatherDisplay:10.37,2013-02-26 22:59:00,
2013-02-26 18:04:00,37.8,29.6,29.86,ESE,105,8.1,13.0,72,0.03,RA,OVC,0.03,0.0,WeatherDisplay:10.37,2013-02-26 23:04:00,
2013-02-26 18:09:00,37.4,29.9,29.85,East,97,9.6,14.0,74,0.03,RA,OVC,0.03,0.0,WeatherDisplay:10.37,2013-02-26 23:09:00,
2013-02-26 18:14:00,37.2,30.0,29.85,East,86,5.9,13.8,75,0.04,RA,OVC,0.04,0.0,WeatherDisplay:10.37,2013-02-26 23:14:00,
2013-02-26 18:19:00,36.9,30.0,29.85,East,101,3.8,9.2,76,0.04,RA,OVC,0.04,0.0,WeatherDisplay:10.37,2013-02-26 23:19:00,
2013-02-26 18:24:00,36.8,30.3,29.85,East,95,6.4,12.0,77,0.05,RA,OVC,0.05,0.0,WeatherDisplay:10.37,2013-02-26 23:24:00,
2013-02-26 18:29:00,36.6,30.4,29.84,ENE,59,6.0,10.0,78,0.05,RA,OVC,0.05,0.0,WeatherDisplay:10.37,2013-02-26 23:29:00,
2013-02-26 18:34:00,36.4,30.5,29.84,East,85,3.2,9.2,79,0.05,-RA,OVC,0.05,0.0,WeatherDisplay:10.37,2013-02-26 23:34:00,
2013-02-26 18:39:00,36.4,30.5,29.84,ENE,67,5.0,10.4,79,0.06,-RA,OVC,0.06,0.0,WeatherDisplay:10.37,2013-02-26 23:39:00,
2013-02-26 18:44:00,36.2,30.6,29.83,East,99,8.3,13.8,80,0.05,-RA,OVC,0.06,0.0,WeatherDisplay:10.37,2013-02-26 23:44:00,
2013-02-26 18:49:00,36.2,30.6,29.83,ENE,74,6.4,10.4,80,0.05,-RA,OVC,0.06,0.0,WeatherDisplay:10.37,2013-02-26 23:49:00,
2013-02-26 18:54:00,36.1,30.5,29.83,East,80,5.2,10.4,80,0.06,-RA,OVC,0.07,0.0,WeatherDisplay:10.37,2013-02-26 23:54:00,
2013-02-26 18:59:00,36.0,30.7,29.83,East,79,4.6,9.2,81,0.05,-RA,OVC,0.07,0.0,WeatherDisplay:10.37,2013-02-26 23:59:00,
2013-02-26 19:04:00,36.0,30.7,29.82,ENE,74,3.9,7.0,81,0.05,-RA,OVC,0.08,0.0,WeatherDisplay:10.37,2013-02-27 00:04:00,
2013-02-26 19:09:00,35.9,30.9,29.82,East,97,9.5,16.0,82,0.06,-RA,OVC,0.09,0.0,WeatherDisplay:10.37,2013-02-27 00:09:00,
2013-02-26 19:14:00,35.7,30.7,29.81,East,91,7.6,14.0,82,0.06,-RA,OVC,0.10,0.0,WeatherDisplay:10.37,2013-02-27 00:14:00,
2013-02-26 19:19:00,35.6,30.9,29.81,East,89,8.1,11.0,83,0.08,-RA,OVC,0.12,0.0,WeatherDisplay:10.37,2013-02-27 00:19:00,
2013-02-26 19:24:00,35.6,31.2,29.81,East,88,8.5,13.0,84,0.08,-RA,OVC,0.13,0.0,WeatherDisplay:10.37,2013-02-27 00:24:00,
2013-02-26 19:29:00,35.5,31.1,29.81,East,84,7.4,11.5,84,0.09,-RA,OVC,0.15,0.0,WeatherDisplay:10.37,2013-02-27 00:29:00,
2013-02-26 19:34:00,35.5,31.1,29.81,ENE,78,7.2,13.8,84,0.10,-RA,OVC,0.15,0.0,WeatherDisplay:10.37,2013-02-27 00:34:00,
2013-02-26 19:39:00,35.5,31.4,29.81,East,88,7.4,11.5,85,0.11,-RA,OVC,0.17,0.0,WeatherDisplay:10.37,2013-02-27 00:39:00,
2013-02-26 19:44:00,35.4,31.3,29.80,East,82,8.5,11.5,85,0.13,-RA,OVC,0.19,0.0,WeatherDisplay:10.37,2013-02-27 00:44:00,
2013-02-26 19:49:00,35.4,31.3,29.79,East,80,7.7,12.7,85,0.16,-RA,OVC,0.22,0.0,WeatherDisplay:10.37,2013-02-27 00:49:00,
2013-02-26 19:54:00,35.3,31.2,29.79,ENE,59,9.1,14.0,85,0.17,-RA,OVC,0.24,0.0,WeatherDisplay:10.37,2013-02-27 00:54:00,
2013-02-26 19:59:00,35.3,31.5,29.78,ESE,103,10.6,17.0,86,0.19,-RA,OVC,0.27,0.0,WeatherDisplay:10.37,2013-02-27 00:59:00,
2013-02-26 20:04:00,35.2,31.4,29.78,East,91,8.2,15.0,86,0.20,-RA,OVC,0.28,0.0,WeatherDisplay:10.37,2013-02-27 01:04:00,
2013-02-26 20:09:00,35.2,31.4,29.79,East,95,6.7,11.5,86,0.21,-RA,OVC,0.30,0.0,WeatherDisplay:10.37,2013-02-27 01:09:00,
2013-02-26 20:14:00,35.2,31.4,29.80,East,94,7.4,13.8,86,0.22, +RA,OVC,0.32,0.0,WeatherDisplay:10.37,2013-02-27 01:14:00,
2013-02-26 20:19:00,35.2,31.7,29.81,ESE,105,5.3,11.5,87,0.21, +RA,OVC,0.33,0.0,WeatherDisplay:10.37,2013-02-27 01:19:00,
2013-02-26 20:24:00,35.2,31.7,29.81,East,99,5.0,9.2,87,0.22, +RA,OVC,0.36,0.0,WeatherDisplay:10.37,2013-02-27 01:24:00,
2013-02-26 20:29:00,35.2,31.7,29.81,ESE,103,5.7,10.4,87,0.22, +RA,OVC,0.37,0.0,WeatherDisplay:10.37,2013-02-27 01:29:00,
2013-02-26 20:34:00,35.2,31.7,29.81,East,100,5.2,9.2,87,0.24, +RA,OVC,0.39,0.0,WeatherDisplay:10.37,2013-02-27 01:34:00,
2013-02-26 20:39:00,35.2,31.7,29.81,ESE,103,4.8,9.2,87,0.24, +RA,OVC,0.41,0.0,WeatherDisplay:10.37,2013-02-27 01:39:00,
2013-02-26 20:44:00,35.3,31.8,29.82,East,101,3.7,7.0,87,0.23, +RA,OVC,0.42,0.0,WeatherDisplay:10.37,2013-02-27 01:44:00,
2013-02-26 20:49:00,35.3,32.1,29.82,East,101,2.7,8.1,88,0.21, +RA,OVC,0.43,0.0,WeatherDisplay:10.37,2013-02-27 01:49:00,
2013-02-26 20:54:00,35.3,32.1,29.82,East,101,3.3,5.0,88,0.20, +RA,OVC,0.44,0.0,WeatherDisplay:10.37,2013-02-27 01:54:00,
2013-02-26 20:59:00,35.3,32.1,29.83,East,101,1.7,3.5,88,0.19, +RA,OVC,0.46,0.0,WeatherDisplay:10.37,2013-02-27 01:59:00,
2013-02-26 21:04:00,35.3,32.1,29.83,East,101,1.6,4.0,88,0.19, +RA,OVC,0.47,0.0,WeatherDisplay:10.37,2013-02-27 02:04:00,
2013-02-26 21:09:00,35.3,32.1,29.82,East,101,3.7,8.0,88,0.18, +RA,OVC,0.48,0.0,WeatherDisplay:10.37,2013-02-27 02:09:00,
2013-02-26 21:15:00,35.2,32.0,29.81,East,90,2.2,5.8,88,0.17, +RA,OVC,0.49,0.0,WeatherDisplay:10.37,2013-02-27 02:15:00,
2013-02-26 21:20:00,35.1,31.9,29.81,East,88,2.0,5.0,88,0.18, +RA,OVC,0.52,0.0,WeatherDisplay:10.37,2013-02-27 02:20:00,
2013-02-26 21:25:00,35.1,31.9,29.80,ENE,74,4.0,8.0,88,0.17,RA,OVC,0.53,0.0,WeatherDisplay:10.37,2013-02-27 02:25:00,
2013-02-26 21:30:00,35.0,31.8,29.80,East,90,6.2,9.2,88,0.18,RA,OVC,0.55,0.0,WeatherDisplay:10.37,2013-02-27 02:30:00,
2013-02-26 21:35:00,34.9,31.7,29.80,ENE,74,5.0,10.4,88,0.16,RA,OVC,0.56,0.0,WeatherDisplay:10.37,2013-02-27 02:35:00,
2013-02-26 21:40:00,34.9,32.0,29.78,ENE,78,4.0,6.0,89,0.16,RA,OVC,0.57,0.0,WeatherDisplay:10.37,2013-02-27 02:40:00,
2013-02-26 21:45:00,34.9,32.0,29.78,NE,52,2.7,9.2,89,0.16,RA,OVC,0.58,0.0,WeatherDisplay:10.37,2013-02-27 02:45:00,
2013-02-26 21:50:00,34.8,31.9,29.79,ENE,66,2.3,6.9,89,0.17,RA,OVC,0.60,0.0,WeatherDisplay:10.37,2013-02-27 02:50:00,
2013-02-26 21:55:00,34.9,32.0,29.78,East,92,5.2,9.2,89,0.16, +RA,OVC,0.61,0.0,WeatherDisplay:10.37,2013-02-27 02:55:00,
2013-02-26 22:00:00,34.9,32.0,29.77,ESE,103,5.9,11.0,89,0.17, +RA,OVC,0.64,0.0,WeatherDisplay:10.37,2013-02-27 03:00:00,
2013-02-26 22:05:00,34.8,31.9,29.77,East,90,5.5,12.7,89,0.19, +RA,OVC,0.67,0.0,WeatherDisplay:10.37,2013-02-27 03:05:00,
2013-02-26 22:10:00,34.8,31.9,29.77,ENE,77,8.4,10.4,89,0.22, +RA,OVC,0.70,0.0,WeatherDisplay:10.37,2013-02-27 03:10:00,
2013-02-26 22:15:00,34.8,31.9,29.77,East,100,8.5,15.0,89,0.22, +RA,OVC,0.72,0.0,WeatherDisplay:10.37,2013-02-27 03:15:00,
2013-02-26 22:20:00,34.9,32.0,29.76,East,80,8.8,13.8,89,0.21, +RA,OVC,0.72,0.0,WeatherDisplay:10.37,2013-02-27 03:20:00,
2013-02-26 22:25:00,34.8,31.9,29.75,ENE,78,5.3,10.4,89,0.19, +RA,OVC,0.73,0.0,WeatherDisplay:10.37,2013-02-27 03:25:00,
2013-02-26 22:30:00,34.8,31.9,29.76,East,86,7.4,10.4,89,0.19, +RA,OVC,0.74,0.0,WeatherDisplay:10.37,2013-02-27 03:30:00,
2013-02-26 22:35:00,34.9,32.0,29.75,East,82,9.5,14.0,89,0.18, +RA,OVC,0.74,0.0,WeatherDisplay:10.37,2013-02-27 03:35:00,
2013-02-26 22:40:00,34.9,32.0,29.74,ENE,74,6.9,15.0,89,0.18, +RA,OVC,0.75,0.0,WeatherDisplay:10.37,2013-02-27 03:40:00,
2013-02-26 22:45:00,34.9,32.0,29.73,East,83,6.9,13.8,89,0.17, +RA,OVC,0.75,0.0,WeatherDisplay:10.37,2013-02-27 03:45:00,
2013-02-26 22:50:00,35.0,32.4,29.73,East,80,7.8,12.7,90,0.16, +RA,OVC,0.76,0.0,WeatherDisplay:10.37,2013-02-27 03:50:00,
2013-02-26 22:55:00,35.0,32.1,29.72,East,81,7.6,13.0,89,0.15, +RA,OVC,0.76,0.0,WeatherDisplay:10.37,2013-02-27 03:55:00,
2013-02-26 23:00:00,35.1,32.2,29.72,East,88,7.9,14.0,89,0.13, +RA,OVC,0.77,0.0,WeatherDisplay:10.37,2013-02-27 04:00:00,
2013-02-26 23:05:00,35.2,32.3,29.71,ESE,103,11.4,14.0,89,0.10, +RA,OVC,0.77,0.0,WeatherDisplay:10.37,2013-02-27 04:05:00,
2013-02-26 23:10:00,35.2,32.3,29.71,ESE,107,12.9,19.0,89,0.09, +RA,OVC,0.78,0.0,WeatherDisplay:10.37,2013-02-27 04:10:00,
2013-02-26 23:15:00,35.2,32.3,29.70,East,95,11.9,16.1,89,0.07, +RA,OVC,0.78,0.0,WeatherDisplay:10.37,2013-02-27 04:15:00,
2013-02-26 23:21:00,35.2,32.3,29.69,East,86,10.3,17.3,89,0.07, +RA,OVC,0.79,0.0,WeatherDisplay:10.37,2013-02-27 04:21:00,
2013-02-26 23:26:00,35.2,32.3,29.69,East,90,8.7,16.1,89,0.06,-RA,OVC,0.79,0.0,WeatherDisplay:10.37,2013-02-27 04:26:00,
2013-02-26 23:31:00,35.2,32.3,29.69,East,90,12.2,15.0,89,0.05,-RA,OVC,0.79,0.0,WeatherDisplay:10.37,2013-02-27 04:31:00,
2013-02-26 23:36:00,35.1,32.2,29.68,East,88,8.2,13.8,89,0.06,-RA,OVC,0.80,0.0,WeatherDisplay:10.37,2013-02-27 04:36:00,
2013-02-26 23:41:00,35.1,32.2,29.68,ENE,66,7.6,16.0,89,0.05,-RA,OVC,0.80,0.0,WeatherDisplay:10.37,2013-02-27 04:41:00,
2013-02-26 23:46:00,35.2,32.3,29.67,ENE,67,10.5,15.0,89,0.05,-RA,OVC,0.80,0.0,WeatherDisplay:10.37,2013-02-27 04:46:00,
2013-02-26 23:51:00,35.2,32.3,29.67,SE,128,10.3,18.4,89,0.05,-RA,OVC,0.81,0.0,WeatherDisplay:10.37,2013-02-27 04:51:00,
2013-02-26 23:56:00,35.2,32.0,29.67,East,88,8.0,13.8,88,0.05,-RA,OVC,0.81,0.0,WeatherDisplay:10.37,2013-02-27 04:56:00,